This is the latest recevied weather packets stored in our database for station/object AD8BW. If no packets are shown the sender has not sent any weather packets the latest 10 day(s).
| Time | Temp. | Humidity | Pressure | Rain* | Wind** | Luminosity | Snow |
|---|---|---|---|---|---|---|---|
| 1777272820 | 8.33° C | 74% | 1019.4 hPa | 0 mm | - | 0 W/m² | - |
| 1777272217 | 8.33° C | 74% | 1019.4 hPa | 0 mm | - | 0 W/m² | - |
| 1777271619 | 8.33° C | 74% | 1019.4 hPa | 0 mm | - | 0 W/m² | - |
| 1777271022 | 8.89° C | 74% | 1019.4 hPa | 0 mm | - | 0 W/m² | - |
| 1777270415 | 8.89° C | 74% | 1019.4 hPa | 0 mm | - | 0 W/m² | - |
| 1777269819 | 8.89° C | 74% | 1019.6 hPa | 0 mm | - | 0 W/m² | - |
| 1777269219 | 8.33° C | 75% | 1019.6 hPa | 0 mm | - | 0 W/m² | - |
| 1777268618 | 8.89° C | 74% | 1019.7 hPa | 0 mm | - | 0 W/m² | - |
| 1777268018 | 8.33° C | 74% | 1019.8 hPa | 0 mm | - | 0 W/m² | - |
| 1777267417 | 8.89° C | 73% | 1019.7 hPa | 0 mm | - | 0 W/m² | - |
| 1777266819 | 8.89° C | 72% | 1019.8 hPa | 0 mm | - | 0 W/m² | - |
| 1777266216 | 9.44° C | 72% | 1020 hPa | 0 mm | - | 0 W/m² | - |
| 1777265615 | 8.89° C | 73% | 1020 hPa | 0 mm | - | 0 W/m² | - |
| 1777265013 | 8.89° C | 72% | 1020 hPa | 0 mm | - | 0 W/m² | - |
| 1777264412 | 8.89° C | 71% | 1019.9 hPa | 0 mm | - | 0 W/m² | - |
| 1777263813 | 8.89° C | 72% | 1019.9 hPa | 0 mm | - | 0 W/m² | - |
| 1777263214 | 8.89° C | 72% | 1019.9 hPa | 0 mm | - | 0 W/m² | - |
| 1777262617 | 9.44° C | 72% | 1020 hPa | 0 mm | - | 0 W/m² | - |
| 1777262010 | 9.44° C | 75% | 1020 hPa | 0 mm | - | 0 W/m² | - |
| 1777261408 | 9.44° C | 78% | 1019.9 hPa | 0 mm | - | 0 W/m² | - |
| 1777260812 | 10° C | 80% | 1020.1 hPa | 0 mm | - | 0 W/m² | - |
| 1777260212 | 10° C | 80% | 1020.2 hPa | 0 mm | - | 0 W/m² | - |
| 1777259610 | 10° C | 78% | 1020.3 hPa | 0 mm | - | 0 W/m² | - |
| 1777259011 | 10° C | 78% | 1020.5 hPa | 0 mm | - | 0 W/m² | - |
| 1777258408 | 10° C | 79% | 1020.5 hPa | 0 mm | - | 0 W/m² | - |
* Rain latest hour (hover to see other rain measurements)
** Current wind speed in m/s (hover to see current wind gust speed)